Regional Weather Roundup
Issued by NWS Boston, MA

Current Version | Previous Version | Text Only | Print | Product List | Glossary On
Versions: 1 2 3 4 5 6 7 8 9 10 11 12 13 14 15 16 17 18 19 20 21 22 23 24 25 26 27 28 29 30 31 32 33 34 35 36 37 38 39 40 41 42 43 44 45 46 47 48 49
000 ASUS41 KBOX 070304 RWRBOX REGIONAL WEATHER ROUNDUP NATIONAL WEATHER SERVICE BOSTON/NORTON MA 1000 PM EST SAT MAR 06 2021 NOTE: "FAIR" INDICATES FEW OR NO CLOUDS BELOW 12,000 FEET WITH NO SIGNIFICANT WEATHER AND/OR OBSTRUCTIONS TO VISIBILITY. MAZALL-070400- EASTERN MASSACHUSETTS CITY SKY/WX TMP DP RH WIND PRES REMARKS BOSTON CLEAR 28 8 43 W13 30.12S WCI 17 BEVERLY CLEAR 26 7 44 NW7 30.10S WCI 18 LAWRENCE CLEAR 25 8 48 W6 30.12S WCI 18 BEDFORD CLEAR 24 9 52 W8 30.11R WCI 15 BLUE HILL N/A 21 9 59 W13 30.07R WCI 9 NORWOOD CLEAR 26 9 48 W9 30.13R WCI 17 MARSHFIELD FLURRIES 28 10 47 VRB6 30.11S WCI 22 PLYMOUTH CLEAR 25 9 50 W8 30.11R WCI 16 TAUNTON CLEAR 26 8 46 VRB6 30.13R WCI 19 NEW BEDFORD CLEAR 26 8 46 W13G21 30.13R WCI 15 $$ MAZALL-070400- CAPE COD AND THE ISLANDS CITY SKY/WX TMP DP RH WIND PRES REMARKS FALMOUTH CLEAR 25 9 50 NW14 30.11R WCI 13 HYANNIS CLEAR 27 9 46 W6 30.09R WCI 20 CHATHAM CLEAR 28 11 48 W7 30.10S WCI 21 PROVINCETOWN PTCLDY 29 14 53 NW17 30.11R WCI 17 NANTUCKET N/A N/A N/A N/A MISG N/A MARTHAS VNYRD CLEAR 27 10 49 NW10 30.12R WCI 17 $$ MAZALL-070400- CENTRAL AND WESTERN MASSACHUSETTS CITY SKY/WX TMP DP RH WIND PRES REMARKS WORCESTER CLEAR 20 6 55 W10 30.07S WCI 9 FITCHBURG CLOUDY 24 11 57 W15 30.11F WCI 11 ORANGE CLOUDY 22 7 52 W6 30.12F WCI 14 SPRINGFIELD NOT AVBL WESTFIELD CLOUDY 23 8 52 NW5 30.16S WCI 17 NORTH ADAMS CLEAR 20 5 52 W9 30.14S WCI 9 PITTSFIELD CLOUDY 18 9 68 NW12G18 30.09R WCI 5 $$ RIZALL-070400- RHODE ISLAND CITY SKY/WX TMP DP RH WIND PRES REMARKS PROVIDENCE CLEAR 25 8 48 NW10G21 30.15R WCI 15 NEWPORT CLEAR 25 9 50 NW10G20 30.13S WCI 15 BLOCK ISLAND CLEAR 25 10 53 NW15G25 30.17R WCI 13 SMITHFIELD CLEAR 22 10 60 NW8 30.12R WCI 12 WESTERLY CLEAR 24 7 48 NW5 30.16S WCI 18 $$ CTZALL-070400- CONNECTICUT CITY SKY/WX TMP DP RH WIND PRES REMARKS BRADLEY INTL CLOUDY 25 9 50 NW9 30.16S WCI 15 HARTFORD CLOUDY 27 7 42 NW7 30.18S WCI 19 BRIDGEPORT CLEAR 28 9 43 NW6 30.20R WCI 22 DANBURY MOCLDY 24 9 52 CALM 30.17S GROTON PTCLDY 26 8 46 NW13 30.17S WCI 15 NEW HAVEN CLEAR 27 10 49 CALM 30.19R CHESTER FAIR 25 7 46 VRB3 30.15F MERIDEN CLOUDY 27 8 44 W9 30.18S WCI 18 WILLIMANTIC CLOUDY 25 8 48 NW7 30.16R WCI 17 OXFORD CLOUDY 23 10 57 W3 30.14F $$ MEZ002-015-021-024-NHZ003-005-008-011-012-014-VTZ005-008-070400- NORTHERN NEW ENGLAND CITY SKY/WX TMP DP RH WIND PRES REMARKS PORTLAND ME MOCLDY 23 7 50 NW10 30.09R WCI 12 BANGOR ME CLEAR 19 5 54 NW12 30.06R WCI 7 CONCORD NH CLOUDY 23 7 50 N13 30.11R WCI 11 MANCHESTER NH MOCLDY 27 6 41 NW9 30.09S WCI 18 NASHUA NH CLOUDY 26 12 55 W9 30.11S WCI 17 PORTSMOUTH NH NOT AVBL JAFFREY NH CLOUDY 21 9 59 VRB3 30.07R KEENE NH CLOUDY 22 7 52 N14 30.12R WCI 9 BURLINGTON VT CLOUDY 21 7 54 NW8 30.17S WCI 11 MT. WASHINGTON FOG -8 -8 100 NW22G30 N/A VSB 1/16WCI -33 $$ NYZ052-076-070400- EASTERN NEW YORK CITY SKY/WX TMP DP RH WIND PRES REMARKS ALBANY CLOUDY 21 7 54 NW7 30.20R WCI 12 NEW YORK CITY PTCLDY 30 9 41 N7 30.21R WCI 23 $$ ANZALL-070400- MARINE OBSERVATIONS STATION/POSITION TIME TEMP WIND PRES VSBY WAVE AIR SEA DIR/SP/G HT/PER (UTC) (F) (DEG/KT/KT) (MB) (MI) (FT/S) BOSTON BUOY 0240 40 310/ 16/ 21 1020.1R BUZZARDS BAY 0200 310/ 23/ 25 1021.2R NANTUCKET SOUND 0240 36 300/ 17/ 21 N/A MASS BAY-STELLWA 0204 30 310/ 16/ 23 1018.3R 1 7/8 2/ 3 ISLE OF SHOALS 0200 27 310/ 18/ 20 1018.6R S OF BLOCK IS 0226 41 N/A 5/ 5 $$ ......................KEY......................... SKY/WX - SKY CONDITION/PRESENT WEATHER TMP - TEMPERATURE IN FAHRENHEIT DWPT - DEWPOINT IN FAHRENHEIT RH - RELATIVE HUMIDITY IN PERCENT WIND - DIRECTION AND SPEED IN MPH PRES - MEAN SEA LEVEL PRESSURE IN INCHES OF HG WCI - WIND CHILL INDEX VSB - VISIBILITY IN MILES HX - HEAT INDEX TC - TEMPERATURE IN CELSIUS VRB - VARIABLE WIND DIRECTION N/A - NOT AVAILABLE

USA.gov is the U.S. government's official web portal to all federal, state and local government web resources and services.